Blythe, CA

6:46 AM PDT on October 21, 2019 (GMT -0700)
Blythe

Weather History for KBLH - August, 2019

Change the Weather History Date:

Saturday, August 24, 2019

  Actual Average Record
Temperature  
Mean Temperature 91 °F -  
Max Temperature 102 °F 104 °F 117 °F (1985)
Min Temperature 82 °F 79 °F 68 °F (1992)
Cooling Degree Days 26    
Growing Degree Days 41 (Base 50)    
Moisture  
Dew Point 69 °F    
Average Humidity 49    
Maximum Humidity 72    
Minimum Humidity 32    
Precipitation  
Precipitation 0.00 in - - ()
Sea Level Pressure  
Sea Level Pressure 29.86 in    
Wind  
Wind Speed 11 mph (South)    
Max Wind Speed 20 mph    
Max Gust Speed 21 mph    
Visibility 10 miles    
Events      
Averages and records for this station are not official NWS values.
T = Trace of Precipitation, MM = Missing Value Source: NWS Daily Summary

Daily Weather History Graph

Daily Weather History Graph

Search for Another Location

Airport or City:

Astronomy

Aug. 24, 2019 Rise Set
Actual Time 6:07 AM PDT 7:14 PM PDT
Civil Twilight 5:41 AM PDT 7:40 PM PDT
Nautical Twilight 5:10 AM PDT 8:11 PM PDT
Astronomical Twilight 4:39 AM PDT 8:42 PM PDT
Moon 12:09 AM PDT (8/24) 2:27 PM PDT (8/24)
Length of Visible Light 13h 58m
Length of Day
13h 07m
Last Quarter, 38% of the Moon is Illuminated
Aug 24
Last Quarter
Aug 30
New
Sep 5
First Quarter
Sep 13
Full
Sep 21
Last Quarter

Hourly Weather History & Observations

Time (PDT) Temp. Heat Index Dew Point Humidity Pressure Visibility Wind Dir Wind Speed Gust Speed Precip Events Conditions
12:52 AM 86.0 °F 90.1 °F 69.1 °F 57% 29.83 in 10.0 mi South 11.5 mph - N/A   Clear
1:52 AM 84.9 °F 90.7 °F 72.0 °F 65% 29.84 in 10.0 mi South 12.7 mph - N/A   Clear
2:52 AM 84.9 °F 91.4 °F 73.0 °F 67% 29.84 in 10.0 mi South 9.2 mph - N/A   Clear
3:52 AM 84.0 °F 89.6 °F 72.0 °F 67% 29.84 in 10.0 mi South 5.8 mph - N/A   Clear
4:52 AM 82.9 °F 88.0 °F 72.0 °F 69% 29.84 in 10.0 mi South 5.8 mph - N/A   Clear
5:52 AM 82.9 °F 88.8 °F 73.0 °F 72% 29.86 in 10.0 mi SSW 5.8 mph - N/A   Clear
6:52 AM 84.0 °F 90.2 °F 73.0 °F 69% 29.89 in 10.0 mi South 6.9 mph - N/A   Clear
7:52 AM 84.9 °F 91.4 °F 73.0 °F 67% 29.91 in 10.0 mi South 9.2 mph - N/A   Clear
8:52 AM 88.0 °F 94.7 °F 72.0 °F 59% 29.92 in 10.0 mi South 10.4 mph - N/A   Clear
9:52 AM 91.0 °F 97.6 °F 71.1 °F 52% 29.93 in 10.0 mi South 11.5 mph - N/A   Clear
10:52 AM 93.0 °F 99.0 °F 70.0 °F 47% 29.92 in 10.0 mi SSE 10.4 mph - N/A   Partly Cloudy
11:52 AM 96.1 °F 101.6 °F 69.1 °F 41% 29.91 in 10.0 mi South 12.7 mph - N/A   Clear
12:52 PM 97.0 °F 102.2 °F 68.0 °F 39% 29.89 in 10.0 mi South 12.7 mph 20.7 mph N/A   Clear
1:52 PM 98.1 °F 103.0 °F 68.0 °F 37% 29.87 in 10.0 mi South 12.7 mph 19.6 mph N/A   Clear
2:52 PM 100.0 °F 104.9 °F 66.9 °F 34% 29.84 in 10.0 mi SSE 15.0 mph 20.7 mph N/A   Clear
3:52 PM 100.9 °F 105.3 °F 66.0 °F 32% 29.82 in 10.0 mi South 8.1 mph - N/A   Clear
4:52 PM 100.9 °F 105.3 °F 66.0 °F 32% 29.81 in 10.0 mi SSE 12.7 mph - N/A   Clear
5:52 PM 100.9 °F 106.0 °F 66.9 °F 33% 29.81 in 10.0 mi SSE 12.7 mph - N/A   Clear
6:52 PM 99.0 °F 104.2 °F 68.0 °F 36% 29.81 in 10.0 mi SSE 12.7 mph - N/A   Clear
7:52 PM 98.1 °F 102.4 °F 66.9 °F 36% 29.82 in 10.0 mi SSW 12.7 mph - N/A   Clear
8:52 PM 96.1 °F 101.0 °F 68.0 °F 40% 29.84 in 10.0 mi SSW 19.6 mph - N/A   Clear
9:52 PM 91.9 °F 96.9 °F 69.1 °F 47% 29.86 in 10.0 mi SSW 18.4 mph - N/A   Clear
10:52 PM 91.0 °F 94.3 °F 66.9 °F 45% 29.87 in 10.0 mi SW 15.0 mph - N/A   Clear
11:52 PM 90.0 °F 91.7 °F 64.9 °F 43% 29.87 in 10.0 mi SW 12.7 mph - N/A   Clear